Alamosa, CO

10:55 AM MDT on June 22, 2017 (GMT -0600)
San Luis Valley Regional / Bergman Field

Weather History for KALS - May, 2013

Change the Weather History Date:

Sunday, May 26, 2013

  Actual Average Record
Temperature  
Mean Temperature 60 °F 54 °F  
Max Temperature 79 °F 72 °F 84 °F (1953)
Min Temperature 40 °F 36 °F 24 °F (1907)
Degree Days  
Heating Degree Days 5 11  
Month to date heating degree days 423 376  
Since 1 July heating degree days 8875 8376  
Cooling Degree Days 0 0  
Month to date cooling degree days 0 0  
Year to date cooling degree days 0 0  
Growing Degree Days 12 (Base 50)    
Moisture  
Dew Point 12 °F    
Average Humidity 21    
Maximum Humidity 37    
Minimum Humidity 5    
Precipitation  
Precipitation 0.00 in 0.02 in 0.86 in (1967)
Month to date precipitation 0.18 0.49  
Year to date precipitation 1.06 2.13  
Snow  
Snow 0.00 in 0.00 in 0.10 in (1965)
Month to date snowfall 0.0 0.9  
Since 1 July snowfall 21.1 27.6  
Snow Depth 0.00 in    
Sea Level Pressure  
Sea Level Pressure 29.87 in    
Wind  
Wind Speed 12 mph (SSW)    
Max Wind Speed 25 mph    
Max Gust Speed 31 mph    
Visibility 10 miles    
Events      
T = Trace of Precipitation, MM = Missing Value Source: NWS Daily Summary

Daily Weather History Graph

Daily Weather History Graph

Search for Another Location

Airport or City:

Trip Planner

Search our weather history database for the weather conditions in past years. The results will help you decide how hot, cold, wet, or windy it might be!

Date:

Astronomy

May. 26, 2013 Rise Set
Actual Time 5:46 AM MDT 8:14 PM MDT
Civil Twilight 5:16 AM MDT 8:44 PM MDT
Nautical Twilight 4:39 AM MDT 9:22 PM MDT
Astronomical Twilight 3:58 AM MDT 10:03 PM MDT
Moon 10:05 PM MDT (5/26) 7:18 AM MDT (5/26)
Length of Visible Light 15h 28m
Length of Day
14h 28m
Waning Gibbous, 96% of the Moon is Illuminated
May 26
Waning Gibbous
May 31
Last Quarter
Jun 8
New
Jun 16
First Quarter
Jun 23
Full

Hourly Weather History & Observations

Time (MDT) Temp. Windchill Dew Point Humidity Pressure Visibility Wind Dir Wind Speed Gust Speed Precip Events Conditions
12:52 AM 48.0 °F - 18.0 °F 30% 29.87 in 10.0 mi SSE 4.6 mph - N/A   Clear
1:52 AM 45.0 °F 41.2 °F 17.1 °F 33% 29.87 in 10.0 mi SSE 6.9 mph - N/A   Clear
2:52 AM 53.1 °F - 17.1 °F 24% 29.85 in 10.0 mi South 9.2 mph - N/A   Clear
3:52 AM 44.1 °F 40.8 °F 19.9 °F 38% 29.90 in 10.0 mi SE 5.8 mph - N/A   Clear
4:52 AM 52.0 °F - 16.0 °F 24% 29.87 in 10.0 mi SSW 11.5 mph - N/A   Clear
5:52 AM 50.0 °F - 15.1 °F 25% 29.89 in 10.0 mi SSW 12.7 mph - N/A   Clear
6:52 AM 52.0 °F - 15.1 °F 23% 29.90 in 10.0 mi SSW 9.2 mph - N/A   Clear
7:52 AM 54.0 °F - 19.9 °F 26% 29.93 in 10.0 mi SSW 8.1 mph - N/A   Clear
8:52 AM 63.0 °F - 15.1 °F 16% 29.92 in 10.0 mi SSW 10.4 mph - N/A   Clear
9:52 AM 68.0 °F - 10.0 °F 11% 29.90 in 10.0 mi SSW 10.4 mph - N/A   Clear
10:52 AM 71.1 °F - 7.0 °F 8% 29.90 in 10.0 mi South 12.7 mph 23.0 mph N/A   Clear
11:10 AM 71.6 °F - 3.2 °F 7% 30.15 in 10.0 mi SSW 13.8 mph 21.9 mph N/A   Clear
11:52 AM 72.0 °F - 5.0 °F 7% 29.90 in 10.0 mi South 11.5 mph 16.1 mph N/A   Clear
12:52 PM 73.0 °F - 8.1 °F 8% 29.86 in 10.0 mi South 12.7 mph 20.7 mph N/A   Clear
1:52 PM 78.1 °F - 1.9 °F 5% 29.83 in 10.0 mi WSW 12.7 mph 26.5 mph N/A   Clear
2:52 PM 78.1 °F - 1.0 °F 5% 29.78 in 10.0 mi SW 18.4 mph 29.9 mph N/A   Clear
3:52 PM 77.0 °F - 3.0 °F 6% 29.81 in 10.0 mi WSW 20.7 mph 29.9 mph N/A   Clear
4:52 PM 75.9 °F - 5.0 °F 6% 29.78 in 10.0 mi SW 20.7 mph 27.6 mph N/A   Clear
5:52 PM 75.0 °F - 8.1 °F 8% 29.78 in 10.0 mi WSW 19.6 mph 26.5 mph N/A   Clear
6:52 PM 72.0 °F - 9.0 °F 9% 29.80 in 10.0 mi West 20.7 mph 24.2 mph N/A   Clear
7:52 PM 66.0 °F - 15.1 °F 14% 29.83 in 10.0 mi West 15.0 mph - N/A   Clear
8:52 PM 57.9 °F - 16.0 °F 19% 29.83 in 10.0 mi West 15.0 mph - N/A   Clear
9:52 PM 54.0 °F - 12.9 °F 20% 29.84 in 10.0 mi West 8.1 mph - N/A   Clear
10:52 PM 45.0 °F 42.6 °F 18.0 °F 34% 29.88 in 10.0 mi SE 4.6 mph - N/A   Clear
11:52 PM 46.0 °F 44.8 °F 16.0 °F 30% 29.87 in 10.0 mi SSE 3.5 mph - N/A   Clear